EEL RIVER CAMP CA US current weather conditions

sailwx.info

Wind from 252 at 1 knots gusting 5

Air temperature 12.8° C
Dewpoint 7.9° C

Last reported at 2014-Aug-22 10:28 UTC.
Time now 2014-Aug-22 11:47 UTC

Location: N 40°08' W 123°49'.
View on Google Maps.

See reports from other nearby stations

  
Tides and Currents Weather Stations Pressure Air Temp Water Temp Dewpoint Dewpoint Depression Visibility Wind Speed Wind Dir Waves Ship Positions
date/time (UTC)wind fromknots sea level pressurealtimeterstation pressurevisibilityair tempwater tempwave heightnotes
2014-Aug-22 10:28 252 1 gusting 5 12.8
2014-Aug-22 09:28 13.3
2014-Aug-22 08:28 348 2 gusting 6 15.6
2014-Aug-22 07:28 014 3 gusting 8 17.2
2014-Aug-22 06:28 035 4 gusting 10 18.3
2014-Aug-22 05:28 045 6 gusting 10 19.4
2014-Aug-22 04:28 033 5 gusting 9 21.1
2014-Aug-22 03:28 041 6 gusting 11 22.8
2014-Aug-22 02:28 035 5 gusting 15 25.0
2014-Aug-22 01:28 312 4 gusting 13 27.8
2014-Aug-22 00:28 298 4 gusting 18 29.4
2014-Aug-21 23:28 339 6 gusting 18 30.6
2014-Aug-21 22:28 035 7 gusting 15 31.1
2014-Aug-21 21:28 007 5 gusting 13 32.2
2014-Aug-21 20:28 019 6 gusting 14 31.1
2014-Aug-21 19:28 079 5 gusting 10 28.3
2014-Aug-21 18:28 077 4 gusting 8 26.7
2014-Aug-21 17:28 190 2 gusting 5 22.8
2014-Aug-21 16:28 153 1 gusting 3 20.0
2014-Aug-21 15:28 160 0 gusting 3 17.2
2014-Aug-21 14:28 241 1 gusting 4 12.2
2014-Aug-21 13:28 292 0 gusting 3 11.7
2014-Aug-21 12:28 322 1 gusting 5 11.7
2014-Aug-21 11:28 12.2
2014-Aug-21 10:28 12.8
2014-Aug-21 09:28 001 0 gusting 2 13.3
2014-Aug-21 08:28 344 1 gusting 6 15.0
2014-Aug-21 07:28 277 1 gusting 8 16.1
2014-Aug-21 06:28 048 3 gusting 12 17.2
2014-Aug-21 05:28 047 6 gusting 12 17.8
2014-Aug-21 04:28 045 6 gusting 13 19.4
2014-Aug-21 03:28 046 3 gusting 9 21.1
2014-Aug-21 02:28 053 4 gusting 10 23.3
2014-Aug-21 01:28 015 5 gusting 17 26.7
2014-Aug-21 00:28 332 7 gusting 17 27.8
2014-Aug-20 23:28 026 8 gusting 23 28.3
2014-Aug-20 22:28 017 8 gusting 17 29.4
2014-Aug-20 21:28 028 10 gusting 19 29.4
2014-Aug-20 20:28 357 7 gusting 15 29.4
2014-Aug-20 19:28 046 4 gusting 17 28.3
2014-Aug-20 18:28 103 4 gusting 10 26.1
2014-Aug-20 17:28 084 3 gusting 7 23.3
2014-Aug-20 16:28 096 3 gusting 7 20.0
2014-Aug-20 15:28 208 1 gusting 4 17.2
2014-Aug-20 14:28 030 0 gusting 3 14.4
2014-Aug-20 13:28 13.9
2014-Aug-20 12:28 12.8
2014-Aug-20 11:28 12.8